Regional Weather Roundup
Issued by NWS

Home | Current Version | Previous Version | Graphics & Text | Print | Product List | Glossary On
Versions: 1 2 3 4 5 6 7 8 9 10 11 12 13 14 15 16 17 18 19 20 21 22 23 24 25 26 27 28 29 30 31 32 33 34 35 36 37 38 39 40 41 42 43 44 45 46 47 48 49 50
874
ASUS45 KBOI 251910
RWRID

IDAHO REGIONAL WEATHER ROUNDUP
NATIONAL WEATHER SERVICE BOISE ID
1200 PM MST SAT FEB 25 2017

NOTE: "FAIR" INDICATES FEW OR NO CLOUDS BELOW 12000 FEET
WITH NO SIGNIFICANT WEATHER AND/OR OBSTRUCTIONS TO VISIBILITY

IDZ012-014-252000-
SOUTHWEST IDAHO


CITY           SKY/WX    TMP DP  RH WIND       PRES   REMARKS
BOISE          SUNNY     33  16  49 CALM      30.15S
CALDWELL       SUNNY     34  17  50 W7        30.18S WCI  28
MOUNTAIN HOME  SUNNY     33  15  48 CALM      30.14F
$$

IDZ016-017-252000-
SOUTHCENTRAL IDAHO


CITY           SKY/WX    TMP DP  RH WIND       PRES   REMARKS
BURLEY         MIX PCPN  30  15  53 W9        30.07S WCI  22
JEROME           N/A    N/A N/A N/A MISG      30.10S
TWIN FALLS     SUNNY     27  13  55 SW12      30.09S WCI  17
$$

IDZ019>023-252000-
SOUTHEAST IDAHO


CITY           SKY/WX    TMP DP  RH WIND       PRES   REMARKS
IDAHO FALLS    MOSUNNY   17  11  77 SW18      30.02S WCI   1
POCATELLO      MOSUNNY   21  13  71 W10       30.06F WCI  10
REXBURG        CLOUDY    17  11  77 SW12      30.00S WCI   4
$$

IDZ006-010-011-018-031-032-252000-
CENTRAL IDAHO MOUNTAINS


CITY           SKY/WX    TMP DP  RH WIND       PRES   REMARKS
MCCALL         CLOUDY    17   9  70 S5        30.00F WCI  10
HAILEY         MOSUNNY   21   7  53 CALM      30.01F
STANLEY          N/A     15   5  64 N3        29.95F
SALMON         CLOUDY    28   9  43 S17       29.97F WCI  16
CHALLIS        MOSUNNY   22   8  55 S12       29.97F WCI  10
$$

IDZ002-004-006-007-026-252000-
NORTHERN IDAHO


CITY           SKY/WX    TMP DP  RH WIND       PRES   REMARKS
LEWISTON       SUNNY     37  23  56 CALM      30.14F
LOWELL           N/A     38  22  52 S5        30.15F WCI  34
COEUR D`ALENE  SUNNY     34  26  72 W8        30.07S WCI  27
MULLAN PASS    LGT SNOW  14  13  95 MISG      29.83S VSB 3/4
$$




USA.gov is the U.S. government's official web portal to all federal, state and local government web resources and services.